Wind_Speed
1 3 3 3 4 4 6 7 7 7 7 6 3 3 5 6 2 1 4 5 5 7 7 8 8 8 9 9 9 9 9 8 8 7 8 10 11 10 10 9 8 8 8 7 6 8 8 8 11 14 17 18 16 16 21 25 28 27 24 22 23 25 24 21 22 23 23 24 25 25 26 27 26 24 23 20 19 19 18 18 17 16 14 12 11 11 11
4 4 4 4 4 5 8 9 8 7 6 6 6 6 6 5 4 5 4 7 10 8 7 9 9 9 11 10 10 10 9 8 8 9 9 11 11 10 10 9 8 9 10 9 9 11 12 12 13 16 18 19 18 19 21 25 27 25 22 22 21 21 20 19 19 20 24 26 26 25 27 28 27 26 23 21 21 20 19 18 17 16 13 11 10 9 10
4 4 5 6 6 7 9 10 10 8 5 5 6 6 6 4 4 5 4 6 6 6 6 8 9 9 10 11 10 10 9 8 9 11 11 11 11 10 10 9 9 10 11 11 12 14 17 17 17 18 18 19 20 22 24 25 23 20 19 22 21 18 16 17 18 18 20 23 23 24 27 29 28 25 23 22 22 21 20 18 17 15 14 12 11 11 11
4 6 8 8 7 7 8 9 11 10 7 6 4 5 6 5 5 3 1 2 3 4 6 7 9 10 10 11 11 10 10 10 10 11 12 11 11 11 10 10 10 12 13 12 13 15 17 18 18 19 18 17 18 20 23 24 22 19 19 21 22 20 18 19 20 20 20 23 25 26 29 29 27 24 23 23 21 19 17 16 14 13 14 14 13 13 12
5 9 10 9 7 4 2 5 7 7 6 7 5 3 7 8 7 4 2 3 4 5 5 5 7 9 9 10 11 9 9 10 10 11 11 11 12 12 11 12 12 13 14 15 16 17 17 17 18 19 19 18 16 16 18 19 17 16 16 17 19 20 19 18 19 19 20 22 24 24 24 23 21 18 16 15 13 11 12 13 13 14 16 15 13 12 12
4 7 8 8 6 3 1 3 5 5 4 8 6 3 7 8 6 4 4 5 5 4 5 5 7 9 10 10 11 10 8 8 9 10 10 11 12 12 13 13 14 15 17 18 20 21 20 20 19 20 21 22 21 19 18 18 16 16 18 18 18 19 19 19 18 17 17 19 19 18 17 15 13 11 11 12 12 12 11 12 13 15 15 14 12 11 11
1 5 6 6 4 1 3 3 6 6 2 6 6 2 8 11 8 6 4 4 5 6 7 9 11 12 13 13 13 12 10 9 10 11 11 12 12 13 13 14 15 17 19 20 21 22 22 22 22 20 20 23 24 22 22 22 20 18 18 18 19 19 19 18 17 15 13 14 15 16 16 15 13 12 12 13 15 15 15 15 14 14 13 12 11 11 10
2 4 4 3 4 5 4 3 7 7 2 5 5 0 7 12 10 6 4 3 5 8 10 11 13 14 15 16 16 14 11 10 11 12 12 13 13 14 14 15 19 24 25 24 23 23 23 23 23 22 22 21 21 21 21 22 20 18 17 16 17 18 17 17 17 15 13 12 13 14 14 14 13 12 14 15 16 15 14 13 12 12 11 10 10 10 10
3 2 3 4 6 6 4 2 6 7 3 5 5 1 5 10 10 6 3 4 6 8 10 12 12 13 14 15 15 13 12 12 12 13 14 14 16 18 18 22 27 30 31 30 28 27 27 26 24 24 24 24 22 22 22 22 21 20 18 17 17 18 19 19 18 16 14 14 14 14 13 13 12 12 13 14 14 13 12 11 11 11 12 11 10 10 10
4 3 5 4 5 4 5 6 7 7 6 5 4 2 2 7 10 7 2 5 7 9 11 11 8 5 7 9 9 9 11 11 11 13 16 17 20 22 24 27 29 29 29 29 29 28 28 28 27 25 24 24 25 25 25 24 24 23 23 22 20 21 21 20 19 19 17 16 16 15 14 14 14 13 12 12 12 11 9 8 7 8 8 8 8 8 8
3 4 4 3 2 3 5 8 9 9 7 4 3 3 1 6 9 5 3 6 7 10 10 6 2 1 3 5 5 7 10 12 12 14 17 19 21 22 23 24 24 24 24 24 24 24 24 24 23 21 21 22 24 25 25 24 25 25 25 23 22 21 21 19 19 19 18 17 17 16 15 15 14 14 13 12 11 10 9 8 6 5 5 4 4 4 4
1 2 5 4 4 3 7 10 11 10 5 3 4 2 2 7 8 5 4 5 7 8 5 1 4 3 3 6 6 7 10 13 14 16 19 21 22 22 22 21 21 22 22 21 20 21 20 19 17 16 15 16 19 22 22 21 22 22 21 20 19 20 20 19 17 17 16 16 15 14 13 13 12 12 11 10 9 8 8 7 6 5 5 4 4 4 5
5 5 7 5 3 3 9 13 11 8 3 4 1 2 4 6 7 6 4 3 3 2 2 1 5 8 10 12 13 12 13 15 16 18 21 23 22 22 21 20 20 21 22 23 23 21 20 18 15 13 11 11 13 15 16 16 17 17 16 15 14 14 15 14 14 14 12 12 11 10 9 9 9 8 7 6 5 5 4 4 4 3 3 4 4 5 6
4 5 6 5 4 5 14 17 11 7 2 2 2 6 4 4 6 6 6 4 3 2 5 10 15 17 17 16 15 14 16 17 17 17 19 21 21 21 19 17 16 18 20 20 21 20 19 18 16 14 12 11 11 12 11 12 14 14 13 13 12 11 11 10 9 9 8 8 7 6 6 5 4 4 4 3 2 2 1 1 2 2 3 4 5 6 7
4 6 6 5 3 7 18 16 7 6 6 1 3 6 4 7 8 8 9 9 8 11 14 17 18 18 16 14 13 14 16 16 15 15 17 18 19 20 19 18 17 17 17 17 17 16 16 16 16 15 13 11 12 13 14 14 14 13 13 13 12 11 11 10 9 8 7 6 4 3 3 3 2 2 2 2 1 1 2 2 3 3 4 5 5 6 7
3 5 5 4 1 7 15 11 5 5 5 3 3 3 5 7 7 9 12 12 12 15 17 17 17 17 16 13 12 13 15 15 15 16 16 16 16 17 17 17 15 14 14 14 14 13 13 12 13 13 13 11 11 13 15 15 14 13 13 12 10 10 9 9 9 8 7 6 4 3 3 2 1 1 0 0 0 0 1 1 2 3 4 5 5 6 7
7 7 5 4 3 5 9 9 7 5 4 4 4 5 8 7 7 10 12 13 14 16 18 18 18 17 15 12 11 11 12 12 13 14 14 14 13 13 12 12 11 11 11 12 12 13 13 13 12 12 11 10 9 11 13 14 13 13 12 11 9 8 7 7 6 6 5 5 4 3 3 2 2 2 2 2 2 2 2 2 2 3 4 5 5 5 6
11 12 10 8 9 11 12 12 10 9 9 8 8 9 9 9 9 12 14 17 19 20 20 20 18 16 13 11 10 9 9 9 10 10 10 10 10 10 10 10 10 10 11 11 12 13 14 14 13 12 10 9 9 10 11 12 12 12 11 10 9 8 7 6 5 5 4 3 3 3 2 2 2 2 1 1 1 1 2 2 3 3 4 4 4 5 5
6 8 9 10 12 14 15 16 16 16 15 13 11 11 11 11 12 13 16 20 22 22 23 21 19 17 15 13 12 11 10 9 9 8 8 8 9 9 9 9 9 9 9 10 11 12 13 14 13 11 10 10 11 11 11 11 11 10 9 9 8 7 7 6 5 5 4 3 4 4 3 3 3 2 2 1 1 1 1 2 2 3 3 3 3 3 4
7 8 11 13 15 15 16 16 17 17 18 17 15 14 14 14 14 14 16 19 19 19 20 20 19 18 16 15 15 14 13 12 10 9 9 8 7 7 7 7 7 7 6 7 9 10 12 13 12 11 10 10 10 10 10 11 10 9 8 8 7 7 6 6 5 5 5 5 5 5 5 4 4 3 2 2 2 2 2 2 2 2 2 2 2 2 2
10 11 12 12 13 14 14 16 16 16 16 17 16 16 16 16 16 15 15 15 15 15 15 16 15 14 13 12 12 13 13 12 10 9 8 7 7 6 5 5 5 5 5 5 6 7 10 11 11 10 9 9 9 9 10 10 10 9 8 8 7 7 6 6 6 6 6 6 6 6 6 5 3 3 3 3 3 3 3 3 3 3 2 2 2 2 2
7 7 8 7 8 9 11 13 14 14 14 15 15 15 15 15 15 15 14 13 12 11 11 11 11 12 11 9 9 9 9 9 8 7 6 5 4 5 4 4 4 4 4 4 4 6 8 8 9 9 8 8 8 8 9 9 9 8 8 8 8 7 6 6 6 7 6 6 7 7 7 6 5 5 5 5 5 4 4 4 3 2 2 3 3 3 4
8 9 9 8 9 12 12 12 12 12 11 12 13 13 13 12 12 12 12 11 10 9 8 7 8 10 10 9 8 8 7 7 6 6 4 3 2 3 3 3 3 3 3 3 3 4 6 6 6 6 6 6 7 7 7 7 7 6 7 7 6 6 5 4 5 6 6 6 7 7 6 5 5 5 5 6 6 6 5 3 3 3 4 4 4 5 5
11 11 10 10 12 13 12 10 10 10 9 10 11 11 11 10 10 9 8 8 8 7 7 6 6 7 8 8 7 6 6 6 5 4 5 5 4 4 3 3 3 3 3 3 3 3 3 3 3 4 4 5 6 6 6 5 5 5 6 6 5 5 5 4 5 6 5 5 5 5 4 4 4 4 4 4 6 7 7 6 5 5 5 4 5 5 6
12 11 10 11 12 13 11 9 9 8 8 9 9 10 9 9 9 8 8 8 7 6 7 7 6 6 6 6 5 6 6 7 6 5 4 4 4 3 2 2 3 4 4 4 3 3 2 2 1 2 2 3 3 4 4 4 4 5 5 5 4 4 4 4 5 5 4 4 3 3 3 3 3 3 3 2 3 6 8 7 6 5 5 4 5 5 6
13 12 12 12 12 10 9 8 8 9 8 8 9 10 9 10 10 9 8 8 8 7 7 6 6 6 5 5 5 6 5 6 7 6 4 2 2 1 1 2 3 4 4 5 4 5 4 3 1 0 1 1 1 2 3 3 4 4 4 4 3 3 4 4 3 2 3 3 2 2 2 2 2 2 3 3 3 3 4 6 7 6 6 6 6 6 7
12 10 9 10 9 8 6 6 7 8 8 7 8 9 9 9 9 8 8 7 7 7 7 6 5 5 4 4 4 4 4 4 6 5 3 2 1 0 1 2 2 3 4 4 5 6 6 5 3 3 2 2 1 1 1 1 2 3 3 3 3 3 4 5 4 1 1 1 1 1 1 1 1 2 2 3 3 3 3 3 4 4 6 7 7 8 9
9 8 7 6 7 7 5 5 6 7 6 6 7 7 7 7 6 6 6 5 5 5 5 5 5 4 3 3 2 2 2 2 2 2 2 2 2 2 2 3 3 4 4 5 5 6 7 7 6 5 5 4 3 1 1 0 1 2 3 3 3 4 6 5 3 1 1 1 0 0 1 1 1 1 2 3 3 3 4 4 4 3 3 4 5 7 9
6 6 7 7 6 5 5 5 5 5 4 4 5 5 5 4 3 3 3 3 3 4 3 3 3 2 1 1 1 1 1 2 2 2 3 4 4 5 5 6 6 5 6 6 7 7 8 8 8 8 7 6 4 3 2 1 0 1 1 2 3 2 3 3 2 2 2 1 2 2 0 1 1 2 2 3 4 4 5 6 6 4 3 4 4 5 6
3 3 4 4 4 4 4 4 3 3 2 3 3 3 3 3 2 1 1 2 3 2 2 2 3 3 2 2 2 2 2 3 4 5 5 6 6 7 7 7 7 7 7 7 8 8 9 9 9 10 8 7 6 4 3 2 1 1 1 1 2 2 3 2 2 1 1 3 3 2 1 1 2 2 2 3 3 4 6 8 7 5 4 5 6 5 6
2 2 3 2 2 3 3 3 3 2 1 2 2 3 4 4 3 3 3 3 3 3 3 4 3 3 3 3 3 3 4 5 7 8 9 10 11 11 10 9 8 8 8 8 9 9 8 8 10 10 10 8 7 5 3 3 2 2 1 1 3 5 6 5 4 2 0 2 3 3 2 2 3 3 3 3 3 4 6 8 7 6 5 6 6 6 7
2 2 2 1 0 2 3 2 1 1 1 2 3 4 6 7 7 7 6 5 5 5 5 4 4 4 4 4 4 5 5 7 8 10 11 12 12 11 9 8 8 8 9 10 10 9 8 8 9 10 10 9 8 6 5 4 3 2 2 1 3 6 7 7 7 6 4 2 2 3 3 3 3 3 3 3 3 4 6 7 7 6 5 5 5 6 8
3 2 2 1 1 2 2 3 2 1 2 4 4 5 5 6 7 8 8 8 9 8 7 5 5 5 5 5 5 6 7 7 8 10 11 11 9 6 5 5 6 7 8 8 9 8 8 8 7 8 10 10 8 6 5 4 3 3 2 2 3 6 8 8 8 7 5 4 3 3 3 3 3 3 3 3 3 4 5 6 6 5 5 5 5 6 8
6 4 3 1 2 2 2 3 2 2 4 4 5 4 3 3 4 5 6 8 9 10 10 8 7 7 6 5 5 6 6 5 6 8 10 9 5 3 4 5 6 7 6 5 5 6 6 6 7 8 10 11 9 7 5 4 3 3 3 2 2 4 7 8 7 6 4 3 4 4 2 2 2 2 2 2 2 3 3 4 4 3 4 4 4 6 8
6 5 4 2 1 1 0 1 2 3 4 4 4 3 3 2 2 4 5 6 6 7 9 10 9 8 8 7 6 5 4 4 5 7 8 7 5 3 4 5 6 6 5 4 5 5 5 5 7 9 10 10 9 8 6 5 4 4 3 2 2 3 5 6 6 6 4 3 3 3 2 2 2 2 1 1 1 2 2 2 2 2 3 4 4 5 6
6 6 6 5 4 3 1 1 2 4 4 4 3 3 2 2 3 6 7 6 6 6 6 9 10 9 8 7 6 4 4 3 4 4 5 6 5 5 5 5 5 5 5 5 6 6 5 6 8 10 10 9 9 9 8 6 5 5 4 3 2 3 5 6 5 4 3 3 2 1 1 1 1 1 1 0 0 1 1 2 2 3 3 4 4 5 6
5 5 5 4 3 3 2 3 4 4 4 4 3 3 4 5 5 6 6 5 6 6 5 8 10 9 8 7 6 5 4 3 2 4 5 6 7 7 7 7 6 6 5 5 6 6 6 7 9 10 10 9 9 10 9 7 6 6 5 3 3 3 4 5 4 2 2 2 1 1 1 1 0 1 1 2 2 2 2 2 2 3 4 4 4 5 6
4 4 4 4 3 3 3 4 4 4 4 4 5 5 6 6 6 6 5 5 5 5 5 8 9 9 8 7 6 5 5 4 3 3 5 7 8 8 7 6 7 6 5 6 7 7 8 8 9 10 10 9 10 10 9 8 7 6 5 4 3 3 3 4 3 1 1 1 1 1 1 1 1 2 2 3 3 3 3 3 3 3 4 4 4 5 5
3 3 4 4 4 4 4 4 4 4 4 5 5 5 5 5 6 5 4 4 4 4 4 7 8 9 8 7 7 6 6 6 4 3 4 7 8 9 7 6 6 6 6 7 8 8 7 7 9 10 10 9 9 10 9 8 7 7 6 5 4 3 3 3 3 2 1 1 2 2 2 1 2 3 3 3 3 3 3 4 4 4 4 4 4 4 5
3 3 4 4 4 4 4 5 5 5 5 5 5 4 4 4 4 4 3 3 3 2 2 4 6 7 7 7 7 7 7 7 6 5 5 7 8 8 7 5 5 5 6 4 4 6 6 6 8 9 9 9 8 8 8 8 8 7 6 5 5 4 3 2 2 1 0 1 2 3 3 2 3 3 3 3 3 3 3 4 4 4 4 4 4 4 5
3 4 4 4 4 5 5 5 5 6 5 5 5 5 5 5 4 4 3 3 3 2 2 3 4 5 6 7 7 7 7 8 8 7 7 7 7 7 6 5 4 5 6 5 3 3 5 6 7 8 9 8 8 9 9 8 8 7 6 7 6 5 4 3 2 1 1 2 2 2 2 2 3 3 3 3 3 3 3 3 3 3 3 3 3 4 5
4 4 5 5 6 6 6 6 6 6 6 6 6 6 6 6 6 5 5 5 5 5 4 4 4 5 6 7 7 7 8 8 8 8 8 7 7 6 6 5 4 5 7 6 4 3 3 4 7 9 10 9 9 9 8 7 7 8 8 8 7 6 5 4 2 1 1 2 2 2 2 2 2 2 3 3 3 3 3 3 3 3 3 3 3 3 4
4 5 6 6 6 6 6 6 6 7 7 7 7 7 7 8 8 7 7 7 8 8 8 7 7 7 7 8 8 9 8 8 9 9 9 8 8 7 6 5 5 7 7 5 4 4 4 4 6 8 9 10 10 9 8 7 8 9 9 8 8 7 6 5 4 2 2 2 2 2 2 3 3 2 2 2 2 2 2 2 2 2 2 2 2 2 2
4 5 5 5 6 6 6 6 7 7 7 7 7 8 8 8 8 8 8 8 9 9 10 10 10 10 9 9 9 9 8 8 8 8 8 9 8 7 5 5 6 6 5 4 4 5 5 6 7 7 7 8 9 8 8 8 8 9 9 9 9 9 8 7 5 4 3 3 4 4 3 3 3 3 2 2 2 2 2 2 2 2 2 2 1 1 1
4 4 4 5 5 5 5 6 6 7 7 7 8 8 8 8 8 8 8 9 10 10 11 11 11 11 10 10 10 9 9 9 9 8 8 8 6 4 3 5 6 6 6 6 6 6 6 9 10 10 9 8 8 8 8 9 9 9 10 10 10 10 9 8 7 5 4 4 4 5 5 4 4 4 3 3 2 2 2 3 2 2 2 1 1 1 1
3 3 4 5 5 6 6 6 7 7 7 8 8 8 8 8 8 9 9 10 10 11 11 13 13 12 11 11 12 12 11 10 10 9 9 8 7 5 4 5 6 6 7 8 7 6 6 8 10 11 11 10 9 8 8 9 10 10 10 11 11 10 10 9 8 7 6 4 4 5 5 5 5 5 4 4 4 3 3 3 3 2 2 2 2 2 2
3 3 4 5 6 6 7 7 8 8 7 7 8 8 7 7 8 9 10 10 10 10 11 12 13 12 12 13 13 11 9 9 9 8 7 8 8 8 7 6 4 5 6 7 8 8 8 7 7 9 11 11 10 8 9 10 10 10 10 11 11 10 9 9 9 8 7 7 6 5 5 5 6 6 5 5 4 4 3 3 3 3 3 3 3 3 2
3 3 4 5 6 7 7 7 7 7 7 7 7 7 7 7 9 9 10 10 10 10 10 10 10 10 10 12 12 9 8 8 8 6 5 5 6 7 8 7 5 5 6 7 7 8 8 7 6 7 9 10 10 9 9 11 11 10 10 11 11 10 10 9 9 9 8 8 7 5 4 4 4 5 5 5 4 4 4 4 4 4 4 3 3 3 3
2 4 5 5 6 6 6 6 6 7 7 7 6 6 6 7 8 9 9 10 10 10 9 9 9 8 8 8 9 9 9 9 9 8 7 6 6 6 8 9 8 6 6 7 6 6 5 5 4 6 7 8 9 9 10 11 12 12 11 12 12 11 11 10 10 10 10 9 8 6 6 5 5 5 6 6 5 5 5 5 4 5 6 5 4 4 4
3 4 5 5 5 5 6 6 6 6 6 6 6 6 6 6 7 8 8 8 9 9 9 9 8 8 7 7 8 8 9 10 11 10 10 10 9 9 10 11 10 8 6 5 4 3 3 3 3 4 5 7 8 9 11 12 12 13 13 14 13 13 12 11 11 11 11 11 9 8 8 7 7 7 6 6 7 7 7 6 6 8 9 8 6 5 5
3 4 4 4 5 5 5 5 6 6 5 5 5 6 6 6 7 7 8 8 8 9 8 8 7 7 7 7 7 8 8 9 9 9 9 10 10 11 11 11 10 9 7 4 3 2 2 2 2 2 2 4 6 8 10 11 12 13 14 14 13 12 12 12 12 13 14 14 12 11 9 8 8 8 7 6 8 9 9 8 7 8 8 8 7 6 6
3 4 4 4 5 5 5 6 6 6 5 5 5 5 6 6 7 7 8 9 9 8 8 7 7 6 7 7 7 7 8 9 9 8 9 9 9 9 9 8 8 9 7 5 4 2 1 1 1 2 1 1 4 6 8 9 10 11 12 12 11 11 11 12 12 13 14 15 15 14 12 10 10 9 8 7 8 9 8 8 8 8 7 7 8 8 8
Wind_Direction
164 80 79 54 41 51 49 37 29 24 22 26 34 35 12 346 317 66 12 13 64 83 78 78 79 79 80 74 69 69 66 64 66 66 63 55 47 43 39 37 48 72 100 122 150 165 162 169 176 178 185 188 178 169 172 172 166 163 168 172 174 180 183 183 185 187 183 179 178 177 174 175 178 180 179 178 172 165 158 153 149 144 142 142 141 143 146
119 109 127 127 122 89 63 41 25 20 23 36 44 35 12 11 51 74 85 76 61 50 56 71 78 84 87 83 77 75 70 66 70 72 65 57 52 50 46 45 56 80 103 119 140 156 153 152 165 175 183 187 173 152 154 164 163 160 163 166 166 170 173 172 175 180 180 178 175 174 176 178 178 178 178 174 168 164 160 156 153 149 148 148 147 151 157
140 132 138 135 129 105 82 58 35 25 26 35 38 24 4 3 58 72 104 104 73 52 63 80 88 91 89 83 73 65 61 61 70 72 69 65 61 60 59 59 71 94 109 117 128 143 147 147 156 167 176 182 173 156 150 150 148 150 155 154 149 147 153 161 163 162 164 167 169 172 176 178 178 176 173 169 165 163 160 159 158 157 159 163 165 168 171
179 155 150 132 116 106 88 58 32 20 23 19 10 27 24 3 358 358 187 132 93 98 90 84 86 84 81 76 67 60 59 60 68 72 71 70 66 64 65 67 79 98 109 113 120 133 144 150 156 160 167 176 171 163 160 155 150 154 159 158 153 149 156 166 166 164 164 168 173 177 175 174 173 169 166 165 166 168 171 177 183 182 179 178 181 183 183
184 160 154 142 138 148 113 47 13 357 10 3 346 34 35 10 349 322 296 55 77 124 124 96 86 79 73 68 60 56 61 62 66 71 70 71 69 66 68 72 82 96 104 110 117 125 135 146 153 155 160 168 164 158 159 157 153 152 151 154 158 158 162 164 161 165 170 167 167 168 166 163 163 164 171 178 189 206 212 207 200 192 188 187 189 191 192
193 158 157 165 176 196 135 68 6 339 351 357 352 24 23 10 7 7 22 64 87 119 120 104 96 82 74 71 61 54 59 65 71 71 68 71 73 72 74 75 79 90 101 109 116 119 124 131 139 145 150 152 150 149 150 145 138 133 132 139 145 146 146 146 146 154 164 164 164 166 170 176 184 198 219 221 215 212 202 189 181 180 186 191 192 192 197
181 150 171 186 177 98 140 120 18 357 314 344 344 23 34 20 14 20 41 79 89 98 105 107 105 95 85 77 66 56 54 63 76 77 71 71 74 75 80 81 82 92 103 110 112 113 116 119 123 127 130 130 130 132 136 135 134 134 133 131 131 131 134 140 144 152 163 173 180 181 185 194 200 205 210 201 187 178 173 173 177 179 181 184 187 190 195
187 179 198 179 115 88 135 147 20 10 335 341 335 141 49 23 4 7 45 79 88 102 111 108 108 105 92 74 60 54 57 68 79 81 76 78 81 81 84 89 92 96 100 101 101 101 104 109 116 121 122 120 121 124 127 126 127 130 130 125 121 122 128 134 140 146 153 158 163 165 169 176 180 182 183 179 174 173 174 175 179 182 182 184 187 193 196
221 175 101 114 131 103 80 46 11 6 336 335 328 260 48 23 6 10 54 101 104 110 117 117 119 112 90 68 51 48 63 73 79 83 85 88 91 91 94 98 100 100 99 97 95 93 93 94 99 107 113 116 119 121 119 118 121 124 125 122 119 120 124 127 129 133 138 141 142 145 151 158 162 171 179 178 175 178 181 182 187 191 193 192 193 198 203
232 200 123 128 160 117 44 6 357 350 318 300 291 249 53 25 12 12 72 127 121 123 128 130 139 125 86 69 50 48 67 76 79 89 96 100 101 101 103 104 104 102 100 100 98 95 92 90 88 91 97 103 108 110 108 109 115 117 116 116 118 120 122 123 124 126 130 134 136 140 146 151 152 156 165 165 162 162 163 168 182 188 189 189 191 200 208
228 207 147 98 94 82 20 351 346 341 322 274 242 217 92 20 8 17 105 133 135 140 140 143 218 258 120 106 76 61 76 85 88 94 102 105 107 107 107 107 105 102 100 100 101 100 98 96 96 96 96 98 101 102 102 103 106 107 108 110 112 114 115 116 119 123 126 128 130 133 137 140 140 141 144 142 140 142 142 148 162 172 175 182 188 204 222
99 113 106 75 71 59 359 340 335 337 327 226 214 199 53 19 18 54 98 119 141 154 165 262 337 9 121 135 118 92 87 90 90 93 98 101 101 100 99 98 97 96 95 93 91 91 92 95 101 106 108 109 107 104 105 107 106 105 105 105 106 108 110 112 114 117 120 123 125 127 129 131 132 134 136 136 140 147 152 160 171 179 188 199 209 227 245
97 101 104 90 85 39 349 335 333 340 312 202 198 359 359 11 36 71 75 86 143 199 266 336 58 81 107 120 116 107 102 99 95 94 97 98 97 95 93 92 93 93 91 87 81 79 79 81 85 91 99 109 109 106 109 111 106 103 101 100 101 103 105 109 113 115 118 121 122 124 125 127 131 135 140 145 150 154 161 173 186 197 213 232 247 255 260
92 105 108 102 103 35 352 336 331 345 333 195 19 360 352 31 52 61 56 58 80 81 91 105 105 104 106 107 105 101 100 100 95 93 95 96 95 95 94 92 92 91 90 87 83 78 75 72 71 70 74 82 90 95 99 96 93 92 93 92 91 91 94 99 104 109 114 119 124 127 124 124 129 134 143 159 168 174 192 222 247 259 264 268 271 275 277
84 98 85 80 93 9 352 345 343 6 13 20 338 350 43 73 65 64 66 72 89 100 102 105 107 106 104 101 100 97 94 95 95 94 97 98 99 101 100 97 94 91 89 88 85 80 75 69 64 59 58 63 75 84 87 83 80 80 80 80 79 81 87 91 94 98 102 105 112 122 127 137 147 146 162 187 205 230 252 267 274 279 282 283 284 285 287
43 82 65 56 28 339 351 6 34 20 8 353 325 2 78 78 68 78 82 83 95 101 101 102 103 104 103 100 101 99 96 97 99 99 99 100 101 103 102 100 98 93 89 86 83 79 73 68 64 59 54 54 63 74 81 84 85 84 81 78 77 77 79 81 84 89 92 92 95 97 97 96 86 74 80 66 37 297 286 289 287 287 286 286 288 287 288
63 79 84 81 55 13 18 37 50 40 35 39 48 87 98 83 81 94 93 90 95 100 103 104 103 103 100 98 100 103 102 104 104 103 104 105 106 105 101 99 95 90 85 83 80 77 72 68 66 65 62 60 63 73 79 82 83 85 85 85 87 87 84 83 82 83 82 79 76 72 65 54 40 28 17 19 18 8 3 347 325 317 307 301 299 296 294
88 82 84 87 76 65 61 61 60 62 67 67 74 89 92 88 94 101 100 101 103 104 105 105 103 101 101 101 102 105 108 109 109 112 116 118 118 115 110 106 100 92 87 84 79 75 73 69 68 70 74 77 79 81 82 79 75 73 73 73 76 78 78 80 81 81 80 77 73 66 60 56 47 38 40 40 11 344 342 323 311 312 309 308 314 313 313
110 84 80 82 79 75 72 72 72 72 74 77 84 90 93 98 101 102 105 109 109 107 106 105 103 102 102 103 105 107 109 112 114 122 128 131 132 130 120 111 103 92 82 77 72 68 68 65 64 70 80 87 89 87 84 79 75 73 70 69 69 69 71 73 71 67 62 59 61 57 52 58 56 48 54 63 22 342 332 320 322 326 323 329 339 336 336
98 97 96 90 82 79 77 75 76 78 80 82 87 93 99 104 106 107 110 112 111 110 110 109 108 109 107 104 102 101 102 107 114 123 128 129 132 132 125 114 105 96 85 78 71 67 67 63 60 63 71 78 84 85 83 80 76 75 76 77 77 77 78 78 78 77 69 64 66 64 59 65 69 59 52 53 36 17 6 354 357 4 357 359 359 355 2
98 105 109 104 93 85 80 78 79 82 87 90 94 99 104 108 110 112 112 111 110 111 111 111 111 111 110 105 100 96 95 97 101 109 117 123 127 130 133 129 119 111 102 91 77 71 70 64 58 58 63 67 69 70 71 70 69 69 69 68 68 71 72 72 74 74 68 67 74 72 63 56 53 48 49 43 27 18 14 10 3 355 4 31 32 11 27
102 106 110 106 101 96 89 87 86 86 91 96 98 104 109 112 115 118 117 114 112 109 108 107 104 103 104 103 98 90 85 87 93 100 106 119 137 154 164 157 142 137 129 111 88 79 77 69 58 55 58 62 64 64 63 62 62 64 64 60 56 55 57 67 73 69 65 66 67 65 62 52 32 21 25 27 21 13 5 3 9 15 33 59 62 50 54
94 103 102 94 99 104 103 100 95 89 91 93 94 98 104 108 113 117 118 117 118 117 114 110 106 104 104 101 95 85 74 75 88 103 112 127 161 177 178 175 167 158 147 137 113 92 87 79 65 57 55 57 58 58 60 61 61 66 66 60 52 45 41 51 64 58 51 53 54 51 51 51 38 20 11 13 19 25 27 27 38 56 68 77 77 68 58
100 103 102 101 106 110 111 108 102 96 92 90 91 94 97 99 102 104 104 107 114 119 119 117 118 117 110 102 96 89 80 76 80 99 124 150 173 182 190 199 197 190 180 174 162 134 114 99 78 63 56 54 52 52 54 52 53 63 65 60 57 52 41 45 60 60 52 49 54 54 50 48 50 42 25 6 2 14 33 58 75 76 70 62 58 54 46
99 100 100 103 106 111 114 111 106 104 98 92 94 98 97 96 96 92 90 94 99 106 114 119 124 125 122 116 109 102 93 81 69 73 99 139 163 171 193 214 213 218 221 215 209 204 188 166 112 65 52 51 54 57 56 46 44 53 58 58 56 52 44 40 46 56 61 54 51 62 65 54 53 54 51 41 358 355 7 25 42 54 59 50 38 29 21
95 101 104 106 107 113 120 116 114 116 110 100 100 104 104 106 103 93 89 90 89 91 100 111 120 125 123 118 113 113 101 71 58 64 76 96 127 135 209 239 231 236 237 233 232 230 224 221 228 261 18 17 40 57 64 58 53 54 58 62 65 76 93 98 80 48 58 68 61 66 75 69 68 59 45 51 57 34 12 7 7 6 6 6 8 8 1
92 93 97 106 112 114 111 105 111 120 118 109 108 110 113 115 111 104 99 99 98 97 98 105 120 128 127 116 107 106 96 66 56 61 64 50 49 56 259 247 242 247 248 247 245 239 233 232 238 246 253 260 288 35 73 76 63 60 59 60 44 26 52 82 89 49 33 64 64 65 82 69 52 44 31 30 37 43 39 30 20 7 351 343 348 355 353
84 66 56 74 104 116 110 103 116 129 129 122 122 124 125 123 119 116 112 110 114 118 115 119 128 130 131 135 117 80 62 48 33 27 22 13 351 318 294 275 264 257 252 253 256 252 245 240 241 245 245 246 251 237 161 159 64 59 57 53 38 9 8 24 37 13 353 27 5 275 155 125 30 359 10 17 18 19 15 11 24 42 11 337 342 352 351
68 49 44 55 85 118 123 116 125 140 144 142 145 146 143 137 125 117 121 132 142 140 136 145 154 152 146 175 213 312 328 330 331 332 329 323 314 309 301 290 281 274 264 257 256 257 255 249 246 246 245 241 239 228 209 213 275 33 33 41 50 30 2 357 349 331 327 304 267 247 217 39 337 320 337 350 357 5 360 353 6 34 24 345 350 359 356
38 29 38 51 84 123 131 126 133 148 164 180 191 192 187 187 183 163 176 185 176 167 185 204 202 207 218 234 260 281 290 302 308 308 309 308 304 300 295 286 278 274 272 268 261 257 256 253 247 244 241 238 234 227 217 220 238 275 342 21 23 11 14 35 51 8 306 292 284 284 317 329 305 305 323 329 335 348 348 346 359 25 22 354 356 5 3
35 23 24 35 79 134 147 143 133 129 172 229 240 250 247 240 235 234 233 227 215 214 222 224 228 240 242 243 257 268 274 288 301 307 307 305 303 301 298 289 276 267 264 262 256 251 253 256 249 239 232 230 229 226 220 217 223 248 300 330 328 337 356 19 31 28 272 260 281 298 302 285 279 290 307 307 314 334 342 345 357 16 18 4 3 6 4
66 82 95 89 148 187 180 173 145 73 339 310 301 290 278 268 259 253 253 254 254 252 248 242 240 248 249 246 250 259 271 287 300 306 306 305 305 304 301 293 285 276 265 257 251 249 254 259 249 233 224 224 223 219 215 212 215 233 259 289 312 328 345 2 6 3 2 356 319 298 287 280 277 282 288 293 307 327 337 346 358 9 11 8 6 1 356
45 59 81 74 283 241 221 221 235 320 350 339 324 307 292 283 273 263 259 261 261 261 263 258 246 241 242 244 249 258 272 290 302 305 307 310 310 303 296 303 307 299 284 267 255 253 255 254 242 226 219 217 215 214 217 219 225 246 273 298 319 331 341 352 1 5 5 354 325 301 284 276 274 270 274 291 312 327 338 348 358 5 5 8 6 354 350
42 30 15 335 284 284 266 242 251 309 335 333 327 315 304 309 300 276 268 269 266 261 257 252 241 230 227 237 254 261 268 289 304 304 309 318 323 300 287 303 315 316 307 278 249 245 246 241 231 220 210 204 203 207 217 225 233 244 263 291 315 327 336 344 349 352 352 337 319 309 293 267 262 255 252 281 307 327 343 353 3 10 9 11 9 355 348
50 45 41 47 78 72 56 254 285 320 328 332 336 321 297 306 325 315 307 305 293 269 250 235 224 217 218 233 251 255 258 281 302 305 311 324 336 325 307 310 316 320 318 285 247 242 241 230 216 204 195 194 199 206 211 219 231 234 237 257 287 309 328 336 335 336 343 343 326 311 284 236 232 235 231 255 300 335 358 9 27 36 26 21 23 14 1
54 54 53 57 68 74 58 331 323 328 325 325 331 322 297 293 310 314 312 306 301 287 248 219 212 212 217 228 237 239 248 278 310 327 331 332 334 333 332 330 324 315 303 279 253 243 238 224 206 195 191 195 206 212 213 216 227 231 227 230 259 296 324 334 335 341 352 357 346 329 299 206 198 206 203 193 116 64 61 58 55 56 50 44 44 43 35
51 46 45 45 42 30 3 333 325 324 316 309 307 305 297 293 299 308 308 296 289 285 250 216 209 211 213 217 223 232 246 265 308 345 342 334 330 328 327 325 319 310 298 279 256 239 230 219 204 199 202 210 217 220 220 222 230 233 227 225 243 277 311 324 329 349 14 10 4 22 30 38 116 136 135 134 122 101 86 81 72 67 68 65 62 60 54
44 35 27 16 359 345 335 324 318 315 308 301 297 296 296 298 300 304 304 297 293 284 247 216 209 209 212 217 223 232 243 256 281 328 337 334 333 332 327 317 309 299 284 270 262 252 235 217 208 209 214 218 223 225 225 226 230 231 222 219 236 264 299 316 318 336 42 36 16 24 30 61 130 138 136 130 118 102 88 87 88 85 80 77 73 70 64
34 24 12 356 340 331 324 318 313 308 304 302 301 298 300 306 309 306 299 294 296 283 239 215 212 212 215 223 230 236 244 254 267 293 320 328 334 337 334 321 310 302 285 269 264 258 242 225 220 219 216 215 219 225 226 225 226 225 220 218 229 251 283 304 312 329 22 55 49 47 55 84 115 123 126 124 116 103 85 81 85 87 85 82 78 69 63
360 360 358 349 338 326 318 310 305 303 301 301 299 295 300 310 308 296 283 284 293 283 238 224 225 223 224 234 242 244 247 257 266 277 295 310 325 334 331 317 311 319 321 306 276 257 244 232 225 220 213 209 212 220 225 225 219 216 219 222 224 237 262 285 312 345 69 97 63 53 62 88 108 117 120 116 111 104 89 80 85 85 79 78 76 66 60
319 328 337 336 329 323 315 307 301 299 295 293 289 286 288 294 293 279 267 269 283 288 267 244 241 239 239 246 251 249 251 259 265 273 284 295 307 318 317 307 301 313 324 332 318 276 253 235 221 213 208 207 213 221 227 223 212 211 223 227 222 226 241 254 268 265 168 144 108 79 85 96 99 107 114 109 106 106 100 91 90 88 82 81 77 68 62
308 317 322 321 316 314 308 302 299 296 294 291 287 282 279 278 275 268 258 255 262 268 264 253 252 253 250 249 249 249 251 257 262 265 272 281 288 296 301 302 299 301 307 313 311 295 272 242 223 214 207 207 216 225 226 215 205 212 225 225 218 219 226 230 239 260 182 149 139 130 127 120 109 113 122 121 117 112 109 106 100 93 88 90 88 80 71
310 315 316 314 311 308 302 297 296 297 297 292 286 282 281 280 275 267 258 252 253 258 259 258 260 261 256 250 250 252 256 260 263 264 269 277 282 284 286 289 289 293 299 303 297 288 278 256 238 227 218 217 225 232 227 211 206 214 220 217 213 216 219 217 218 222 199 181 185 184 163 150 146 141 134 134 139 138 134 135 132 115 96 91 93 93 84
319 321 320 318 313 306 300 296 294 294 298 298 290 282 280 281 278 272 266 259 256 258 260 261 261 262 261 258 259 261 264 268 268 265 267 276 281 280 281 290 290 287 289 297 297 285 265 247 244 244 239 235 240 243 233 216 210 213 214 211 211 214 212 210 212 213 198 186 191 198 196 179 168 168 172 166 162 164 166 167 163 149 128 115 110 111 100
325 324 322 322 317 308 303 303 300 298 302 302 292 281 275 274 273 272 268 264 261 261 261 262 263 265 265 263 263 263 265 272 273 266 264 271 278 279 294 306 297 282 278 290 299 291 268 252 249 250 249 248 251 248 230 213 211 214 212 209 212 213 209 206 207 210 209 200 189 191 199 198 187 186 196 192 176 171 178 182 185 181 166 154 151 138 126
317 317 320 322 321 314 310 307 305 304 304 299 291 282 274 270 270 271 272 270 268 267 266 265 267 268 267 267 268 265 262 264 267 264 260 262 261 258 275 301 302 286 279 281 284 287 285 274 259 250 248 250 256 250 227 212 210 212 210 211 215 216 212 209 208 207 211 212 199 190 194 197 197 202 206 198 190 191 190 179 176 184 182 179 181 175 160
304 309 312 311 310 311 312 313 313 311 306 300 296 291 283 274 272 273 273 274 276 278 275 271 270 268 266 268 273 273 265 262 264 261 253 252 254 253 258 278 305 314 303 287 272 274 290 293 272 251 248 252 255 247 225 212 211 212 210 212 216 217 215 215 214 210 211 217 219 216 209 201 197 203 208 204 200 204 195 177 178 195 199 189 183 182 174
301 303 305 306 308 309 311 311 312 309 304 301 302 300 292 281 273 270 271 276 283 287 283 276 272 269 265 264 266 263 254 254 263 265 252 247 250 246 246 253 273 310 323 309 287 277 284 289 271 251 247 248 247 237 220 211 213 214 212 212 214 215 217 219 218 214 216 223 226 229 231 223 212 208 209 206 207 212 206 196 196 205 203 200 200 200 197
314 314 313 315 316 316 314 312 310 308 306 305 304 302 297 287 276 272 273 277 280 283 282 274 267 264 262 258 256 253 251 255 262 265 263 264 262 250 242 247 259 284 311 314 302 289 285 276 255 239 235 235 232 223 214 213 216 215 212 211 212 213 217 222 221 216 218 223 224 222 224 226 227 226 221 214 209 210 210 209 213 214 211 208 205 203 207
331 330 328 326 324 321 320 319 315 312 311 308 304 300 299 294 286 280 279 280 281 283 282 273 263 259 259 256 253 256 261 264 266 267 269 272 272 267 258 254 254 262 280 296 302 301 296 278 247 229 222 218 215 213 212 216 219 218 214 211 211 214 220 228 231 228 226 227 227 225 224 225 228 232 230 224 221 218 215 214 220 223 222 220 216 213 218
339 336 335 336 334 331 329 327 324 322 321 315 306 299 296 296 294 290 287 286 286 285 283 276 266 260 259 258 255 257 263 267 269 272 275 275 275 275 270 258 246 240 245 255 268 292 304 296 283 266 227 206 206 210 210 210 212 214 213 211 213 220 229 237 242 244 244 241 236 231 227 227 229 232 235 236 237 235 231 232 238 237 230 224 222 221 220
335 337 342 347 347 345 345 343 340 339 337 326 313 303 297 296 297 296 293 291 288 282 280 281 279 270 264 263 261 259 263 266 268 271 278 281 279 277 272 256 233 221 219 222 225 227 243 351 359 357 7 178 196 205 204 201 203 209 213 215 221 231 241 246 248 250 251 249 244 237 231 227 226 227 230 236 242 242 239 242 249 251 245 237 233 230 227
Height
1473 1474 1474 1472 1472 1473 1474 1475 1475 1473 1471 1470 1471 1473 1473 1470 1469 1471 1473 1472 1473 1476 1480 1484 1487 1489 1491 1493 1493 1494 1494 1494 1493 1492 1492 1490 1489 1489 1488 1488 1487 1485 1485 1483 1483 1484 1484 1484 1485 1486 1487 1487 1489 1492 1494 1495 1496 1498 1501 1503 1505 1507 1509 1511 1513 1516 1518 1519 1521 1523 1525 1528 1530 1532 1534 1535 1536 1537 1539 1539 1540 1541 1543 1544 1545 1546 1547
1474 1476 1476 1475 1475 1477 1480 1482 1481 1478 1476 1476 1477 1479 1477 1472 1470 1471 1475 1481 1487 1490 1490 1491 1491 1492 1493 1494 1495 1495 1495 1496 1495 1495 1494 1493 1492 1491 1490 1489 1488 1487 1486 1484 1484 1484 1484 1485 1486 1487 1488 1488 1490 1492 1494 1494 1495 1497 1500 1502 1504 1506 1508 1510 1513 1515 1516 1517 1520 1522 1524 1526 1529 1530 1532 1534 1535 1537 1538 1539 1540 1541 1543 1544 1545 1547 1547
1476 1478 1478 1477 1477 1479 1484 1489 1490 1486 1483 1482 1483 1485 1483 1476 1473 1474 1476 1482 1491 1495 1495 1494 1494 1495 1495 1496 1497 1497 1497 1498 1497 1497 1496 1495 1495 1494 1492 1491 1490 1488 1487 1487 1486 1486 1486 1486 1487 1488 1489 1490 1491 1493 1494 1493 1495 1497 1499 1500 1502 1504 1507 1509 1511 1513 1514 1516 1518 1520 1522 1525 1527 1529 1531 1533 1535 1537 1538 1539 1540 1541 1542 1544 1545 1546 1546
1477 1478 1479 1481 1482 1482 1485 1493 1498 1496 1492 1490 1490 1490 1490 1486 1483 1481 1476 1479 1489 1496 1497 1497 1497 1497 1497 1498 1498 1499 1500 1500 1499 1498 1498 1498 1497 1496 1495 1494 1492 1491 1490 1489 1488 1488 1488 1488 1489 1489 1490 1491 1493 1494 1494 1494 1495 1496 1498 1499 1500 1503 1506 1508 1509 1511 1514 1515 1517 1519 1522 1524 1527 1529 1531 1533 1535 1537 1538 1539 1540 1541 1542 1543 1544 1545 1545
1478 1475 1477 1483 1484 1483 1487 1498 1506 1504 1500 1497 1494 1491 1493 1495 1493 1488 1482 1484 1492 1496 1497 1498 1499 1499 1500 1501 1501 1502 1502 1502 1501 1500 1500 1500 1499 1499 1498 1496 1495 1494 1492 1492 1491 1491 1491 1491 1491 1492 1492 1494 1495 1496 1496 1497 1497 1498 1500 1501 1502 1504 1507 1510 1511 1513 1515 1517 1519 1521 1523 1525 1527 1530 1532 1533 1535 1537 1538 1539 1539 1541 1542 1543 1544 1544 1545
1481 1477 1479 1481 1481 1484 1494 1505 1509 1507 1505 1503 1500 1497 1498 1498 1496 1495 1493 1493 1496 1497 1497 1500 1502 1502 1503 1504 1504 1504 1504 1503 1503 1502 1502 1502 1501 1501 1500 1499 1498 1497 1495 1494 1493 1493 1493 1493 1494 1494 1494 1495 1495 1496 1498 1499 1500 1500 1502 1504 1505 1507 1510 1512 1514 1515 1516 1518 1520 1522 1524 1526 1528 1529 1531 1532 1534 1536 1537 1538 1539 1540 1541 1542 1543 1544 1545
1482 1484 1483 1481 1485 1494 1503 1507 1506 1505 1506 1505 1503 1501 1501 1500 1499 1499 1500 1499 1499 1501 1502 1503 1504 1505 1506 1506 1505 1505 1506 1505 1505 1504 1504 1504 1504 1503 1503 1502 1501 1500 1498 1497 1497 1496 1496 1496 1497 1497 1497 1497 1497 1498 1499 1500 1501 1502 1504 1506 1508 1509 1512 1514 1515 1516 1517 1519 1521 1522 1524 1526 1528 1529 1530 1531 1533 1534 1536 1538 1539 1540 1541 1542 1542 1543 1544
1480 1481 1478 1481 1493 1502 1504 1505 1506 1506 1506 1506 1503 1501 1501 1504 1503 1502 1503 1503 1503 1504 1505 1506 1506 1507 1507 1506 1507 1507 1508 1507 1507 1507 1507 1506 1506 1506 1505 1505 1504 1503 1502 1501 1501 1501 1500 1500 1500 1500 1501 1501 1501 1501 1502 1502 1503 1505 1506 1508 1509 1511 1513 1515 1516 1517 1518 1520 1522 1523 1525 1526 1528 1529 1531 1532 1533 1534 1536 1538 1539 1539 1540 1541 1542 1543 1544
1475 1474 1480 1490 1498 1501 1504 1508 1509 1509 1510 1510 1508 1504 1504 1507 1507 1504 1506 1507 1507 1507 1508 1508 1509 1508 1506 1507 1510 1511 1510 1510 1510 1509 1509 1509 1508 1508 1508 1507 1506 1506 1506 1506 1506 1506 1505 1505 1504 1504 1504 1504 1504 1504 1505 1504 1505 1507 1509 1510 1511 1513 1516 1517 1517 1519 1520 1521 1523 1525 1526 1527 1528 1530 1532 1533 1533 1535 1536 1537 1538 1538 1539 1539 1540 1542 1542
1469 1469 1482 1491 1492 1498 1508 1511 1510 1511 1511 1511 1511 1508 1507 1509 1509 1508 1508 1508 1509 1510 1509 1510 1510 1508 1507 1511 1514 1514 1513 1512 1512 1512 1511 1510 1510 1510 1511 1510 1510 1510 1509 1509 1509 1509 1509 1509 1509 1510 1510 1509 1508 1508 1508 1508 1508 1510 1512 1514 1516 1517 1518 1518 1519 1520 1522 1523 1525 1526 1527 1528 1529 1531 1532 1533 1534 1534 1535 1536 1537 1537 1538 1539 1540 1540 1541
1468 1466 1476 1486 1492 1503 1513 1512 1510 1511 1509 1510 1511 1506 1505 1511 1512 1510 1510 1510 1510 1511 1511 1511 1511 1509 1510 1514 1517 1517 1515 1515 1515 1514 1513 1513 1512 1513 1513 1513 1513 1513 1513 1513 1513 1512 1512 1512 1514 1515 1516 1515 1514 1512 1512 1513 1513 1514 1516 1518 1519 1520 1520 1521 1522 1523 1524 1526 1527 1528 1529 1530 1530 1531 1532 1533 1534 1534 1535 1536 1537 1537 1538 1539 1539 1540 1540
1475 1473 1481 1495 1504 1511 1514 1512 1510 1509 1509 1511 1507 1500 1504 1513 1514 1512 1512 1512 1512 1513 1512 1512 1512 1511 1512 1516 1518 1518 1518 1517 1517 1517 1516 1515 1515 1515 1516 1516 1516 1516 1516 1516 1515 1515 1515 1516 1517 1518 1519 1519 1518 1516 1516 1517 1517 1517 1519 1521 1521 1522 1522 1523 1524 1526 1527 1528 1529 1530 1530 1531 1532 1532 1533 1533 1534 1535 1535 1536 1537 1537 1538 1538 1539 1540 1540
1480 1481 1489 1501 1510 1514 1514 1512 1510 1509 1509 1507 1502 1502 1511 1517 1515 1514 1515 1514 1513 1514 1513 1513 1514 1515 1515 1517 1518 1519 1519 1519 1519 1520 1519 1518 1518 1518 1518 1519 1519 1518 1518 1518 1518 1518 1519 1519 1520 1521 1521 1521 1520 1519 1518 1518 1519 1519 1520 1521 1522 1523 1523 1525 1526 1527 1528 1529 1529 1530 1531 1531 1532 1533 1533 1534 1534 1535 1535 1536 1536 1537 1537 1538 1538 1539 1539
1479 1481 1487 1497 1508 1515 1515 1511 1509 1508 1507 1506 1508 1513 1517 1517 1516 1516 1515 1514 1515 1515 1514 1514 1516 1517 1518 1519 1520 1520 1520 1521 1522 1522 1522 1521 1521 1520 1520 1521 1522 1522 1521 1521 1521 1522 1522 1523 1523 1523 1523 1523 1522 1521 1520 1520 1520 1521 1521 1522 1523 1523 1524 1525 1526 1527 1528 1529 1530 1530 1531 1531 1532 1532 1533 1533 1534 1534 1534 1535 1535 1536 1536 1536 1537 1537 1537
1482 1482 1490 1500 1511 1517 1515 1511 1510 1509 1510 1513 1517 1519 1517 1517 1517 1517 1516 1516 1516 1516 1516 1517 1518 1519 1521 1522 1522 1523 1523 1523 1524 1525 1525 1524 1523 1523 1523 1524 1525 1525 1525 1524 1524 1525 1525 1525 1525 1525 1525 1525 1524 1523 1522 1521 1522 1522 1523 1523 1524 1524 1525 1526 1527 1528 1528 1529 1530 1531 1531 1532 1532 1532 1533 1533 1533 1533 1533 1534 1534 1535 1535 1535 1535 1535 1535
1491 1495 1507 1516 1521 1522 1518 1516 1516 1516 1518 1519 1519 1518 1518 1519 1519 1518 1518 1519 1519 1518 1519 1520 1520 1522 1523 1524 1525 1525 1525 1526 1527 1527 1527 1527 1527 1527 1527 1527 1527 1528 1527 1527 1527 1527 1527 1527 1527 1527 1527 1527 1526 1525 1524 1524 1524 1524 1524 1525 1525 1526 1526 1527 1527 1528 1528 1529 1530 1530 1531 1531 1531 1532 1532 1532 1532 1532 1532 1533 1533 1533 1533 1534 1534 1534 1534
1505 1511 1519 1523 1524 1523 1521 1520 1521 1521 1521 1520 1519 1520 1520 1520 1520 1520 1520 1521 1521 1521 1522 1522 1523 1525 1525 1526 1528 1527 1528 1529 1529 1529 1530 1530 1530 1530 1530 1530 1531 1531 1530 1530 1530 1529 1529 1529 1529 1529 1528 1528 1528 1528 1527 1526 1526 1526 1526 1527 1527 1528 1528 1528 1528 1528 1529 1529 1530 1530 1530 1531 1531 1531 1531 1531 1531 1531 1531 1532 1532 1532 1532 1532 1532 1532 1532
1512 1518 1522 1522 1522 1523 1522 1522 1522 1521 1521 1521 1521 1521 1521 1521 1522 1523 1522 1523 1524 1524 1525 1525 1526 1527 1528 1529 1529 1530 1530 1531 1531 1531 1532 1532 1532 1533 1533 1533 1533 1533 1533 1533 1532 1532 1531 1531 1531 1530 1530 1530 1530 1530 1529 1529 1528 1528 1528 1529 1529 1529 1529 1529 1529 1529 1529 1530 1530 1530 1530 1531 1531 1531 1531 1531 1531 1531 1531 1531 1531 1531 1531 1531 1531 1531 1531
1512 1519 1523 1522 1522 1523 1523 1523 1523 1523 1523 1523 1523 1523 1523 1524 1525 1525 1526 1526 1527 1527 1528 1529 1529 1530 1531 1531 1531 1532 1533 1533 1533 1534 1534 1534 1535 1535 1535 1535 1535 1535 1535 1535 1534 1534 1533 1533 1532 1532 1532 1532 1531 1531 1531 1530 1530 1530 1530 1530 1530 1530 1530 1530 1530 1530 1530 1530 1530 1530 1530 1530 1530 1531 1530 1531 1531 1530 1530 1530 1530 1530 1530 1530 1531 1531 1531
1514 1521 1524 1523 1523 1525 1525 1524 1525 1525 1525 1526 1526 1525 1526 1526 1527 1528 1529 1529 1530 1531 1531 1531 1532 1532 1533 1533 1533 1534 1534 1534 1535 1535 1535 1536 1536 1536 1537 1537 1537 1537 1537 1536 1536 1535 1535 1534 1534 1534 1533 1533 1533 1532 1532 1532 1532 1532 1532 1532 1532 1531 1531 1531 1530 1530 1530 1530 1530 1530 1530 1530 1530 1530 1530 1530 1530 1530 1530 1530 1530 1530 1530 1530 1530 1530 1529
1518 1522 1523 1523 1524 1526 1527 1527 1528 1528 1528 1528 1528 1528 1529 1529 1530 1531 1531 1532 1533 1533 1533 1534 1534 1534 1534 1535 1535 1536 1536 1536 1536 1537 1537 1537 1537 1538 1538 1538 1538 1539 1538 1538 1537 1537 1537 1536 1536 1535 1535 1534 1534 1533 1533 1533 1533 1533 1532 1532 1532 1531 1531 1530 1530 1530 1530 1530 1530 1530 1530 1530 1530 1530 1530 1530 1530 1530 1529 1529 1529 1529 1529 1529 1529 1529 1528
1518 1521 1522 1522 1523 1526 1529 1530 1530 1530 1530 1530 1530 1531 1531 1532 1532 1533 1533 1534 1535 1535 1535 1536 1536 1536 1536 1537 1537 1537 1537 1537 1538 1538 1538 1538 1538 1539 1539 1539 1539 1540 1539 1539 1539 1539 1538 1538 1537 1537 1536 1536 1535 1535 1534 1534 1533 1533 1532 1532 1532 1531 1530 1530 1530 1530 1530 1530 1530 1530 1531 1531 1531 1530 1529 1529 1529 1529 1529 1529 1529 1529 1529 1529 1528 1528 1527
1519 1522 1524 1524 1524 1527 1530 1531 1532 1532 1532 1532 1532 1533 1533 1534 1534 1535 1535 1536 1536 1537 1537 1537 1537 1537 1537 1537 1538 1538 1538 1538 1538 1539 1539 1539 1539 1540 1540 1540 1540 1540 1540 1540 1540 1539 1539 1539 1539 1538 1538 1537 1536 1536 1535 1535 1534 1534 1533 1533 1532 1531 1531 1530 1530 1530 1530 1530 1531 1531 1532 1532 1532 1531 1531 1530 1530 1530 1529 1529 1529 1529 1528 1528 1527 1527 1526
1522 1524 1525 1526 1526 1529 1531 1532 1533 1533 1533 1533 1534 1534 1535 1536 1536 1536 1537 1537 1537 1537 1538 1538 1539 1539 1538 1538 1539 1539 1538 1539 1539 1539 1539 1539 1539 1540 1540 1540 1541 1541 1541 1541 1540 1540 1540 1540 1540 1540 1539 1539 1538 1537 1537 1536 1536 1535 1534 1534 1533 1533 1532 1531 1531 1531 1532 1532 1533 1533 1533 1533 1533 1533 1533 1532 1531 1531 1530 1529 1529 1528 1527 1527 1526 1526 1525
1524 1526 1528 1528 1529 1531 1532 1533 1534 1534 1535 1535 1535 1536 1536 1536 1537 1537 1538 1538 1538 1538 1539 1539 1539 1539 1540 1540 1540 1540 1540 1540 1539 1539 1539 1539 1539 1540 1540 1540 1540 1541 1541 1541 1541 1541 1540 1540 1540 1540 1540 1539 1539 1539 1538 1538 1537 1536 1535 1535 1535 1534 1533 1533 1533 1533 1533 1534 1534 1534 1534 1534 1534 1534 1534 1534 1534 1532 1531 1530 1529 1528 1527 1527 1526 1526 1525
1527 1529 1529 1530 1531 1532 1533 1534 1534 1535 1536 1536 1536 1537 1537 1537 1538 1538 1538 1539 1539 1539 1540 1540 1540 1540 1541 1541 1541 1541 1541 1540 1540 1540 1540 1540 1540 1540 1540 1540 1540 1540 1540 1540 1540 1540 1540 1540 1540 1540 1540 1540 1539 1539 1539 1538 1537 1536 1536 1535 1535 1534 1534 1534 1534 1534 1534 1534 1534 1534 1534 1534 1534 1534 1534 1534 1534 1533 1532 1531 1530 1528 1527 1527 1526 1525 1525
1530 1530 1530 1531 1532 1533 1534 1534 1535 1536 1537 1537 1537 1538 1538 1538 1539 1539 1539 1540 1540 1540 1540 1541 1541 1541 1541 1541 1541 1542 1541 1541 1541 1541 1541 1541 1541 1540 1540 1540 1540 1539 1540 1539 1539 1539 1539 1539 1539 1539 1540 1540 1539 1539 1539 1538 1537 1537 1537 1536 1536 1534 1533 1533 1534 1535 1534 1534 1534 1534 1534 1534 1534 1534 1534 1533 1533 1533 1532 1531 1530 1530 1529 1527 1526 1525 1524
1532 1532 1531 1531 1531 1533 1534 1535 1535 1536 1537 1537 1538 1538 1539 1539 1540 1540 1540 1540 1541 1541 1541 1541 1541 1542 1542 1542 1542 1542 1542 1542 1542 1541 1541 1541 1540 1540 1539 1539 1539 1539 1539 1539 1539 1538 1538 1538 1539 1539 1539 1539 1539 1538 1538 1538 1537 1537 1537 1537 1537 1536 1535 1534 1534 1535 1534 1534 1534 1533 1533 1533 1534 1534 1533 1533 1533 1532 1532 1530 1529 1529 1529 1528 1526 1524 1523
1533 1533 1533 1533 1533 1534 1535 1535 1536 1537 1537 1538 1538 1539 1539 1540 1540 1540 1541 1541 1541 1541 1542 1542 1542 1542 1542 1542 1542 1542 1542 1542 1542 1542 1541 1541 1540 1539 1539 1538 1538 1538 1538 1538 1538 1538 1538 1538 1538 1538 1538 1538 1538 1538 1538 1537 1537 1537 1537 1537 1536 1536 1536 1535 1534 1534 1534 1533 1533 1532 1531 1532 1533 1533 1533 1532 1532 1531 1531 1529 1527 1528 1528 1528 1526 1524 1523
1533 1533 1534 1534 1534 1535 1535 1536 1537 1537 1537 1538 1538 1539 1539 1540 1540 1540 1541 1541 1541 1541 1542 1542 1542 1542 1542 1542 1542 1542 1542 1542 1542 1541 1541 1540 1539 1539 1538 1538 1537 1537 1537 1537 1537 1537 1537 1537 1537 1537 1537 1537 1537 1537 1537 1537 1536 1536 1536 1536 1535 1535 1534 1533 1533 1534 1534 1533 1532 1531 1531 1532 1532 1532 1531 1531 1531 1531 1530 1528 1526 1526 1527 1526 1524 1523 1522
1533 1534 1534 1534 1535 1535 1536 1536 1537 1537 1537 1537 1538 1538 1538 1539 1539 1540 1540 1540 1540 1541 1541 1541 1541 1542 1542 1542 1542 1542 1542 1542 1541 1541 1540 1539 1539 1538 1537 1537 1536 1536 1536 1536 1535 1535 1535 1535 1535 1535 1535 1536 1536 1536 1536 1536 1536 1536 1536 1536 1535 1534 1533 1532 1532 1532 1532 1532 1531 1531 1531 1531 1531 1531 1531 1531 1531 1531 1530 1528 1526 1525 1525 1525 1523 1521 1520
1534 1534 1534 1534 1535 1535 1536 1536 1536 1537 1537 1537 1537 1538 1537 1537 1538 1538 1538 1539 1539 1539 1540 1540 1541 1541 1541 1541 1541 1541 1541 1540 1540 1540 1539 1538 1537 1536 1536 1535 1535 1534 1534 1533 1533 1533 1533 1533 1533 1533 1534 1534 1534 1534 1535 1535 1536 1536 1536 1536 1535 1534 1532 1531 1530 1530 1530 1530 1530 1530 1530 1530 1530 1530 1530 1530 1529 1529 1528 1527 1525 1525 1524 1524 1523 1521 1520
1534 1533 1533 1534 1534 1534 1535 1536 1536 1536 1537 1537 1537 1537 1537 1536 1536 1536 1536 1537 1537 1537 1538 1539 1540 1540 1540 1540 1540 1540 1540 1539 1539 1538 1537 1537 1536 1535 1535 1534 1533 1533 1532 1531 1531 1531 1531 1531 1531 1532 1533 1533 1533 1533 1534 1534 1535 1535 1535 1535 1534 1533 1532 1530 1530 1529 1529 1530 1530 1529 1529 1529 1529 1529 1529 1528 1528 1527 1527 1526 1525 1525 1524 1523 1523 1522 1520
1535 1534 1534 1534 1535 1534 1535 1535 1536 1536 1537 1537 1536 1536 1536 1536 1536 1535 1535 1535 1535 1536 1536 1537 1538 1538 1538 1538 1539 1539 1539 1539 1538 1537 1536 1535 1535 1534 1534 1533 1533 1532 1531 1530 1530 1530 1530 1530 1530 1531 1531 1532 1532 1532 1533 1533 1534 1534 1534 1534 1534 1533 1532 1531 1530 1530 1530 1530 1529 1528 1527 1527 1527 1527 1527 1527 1527 1526 1526 1525 1525 1525 1524 1524 1523 1523 1521
1536 1536 1535 1535 1535 1535 1535 1536 1536 1536 1536 1536 1536 1536 1536 1535 1535 1535 1535 1534 1534 1534 1534 1535 1536 1536 1537 1537 1538 1538 1538 1538 1538 1537 1536 1535 1534 1534 1533 1532 1532 1531 1530 1530 1530 1530 1529 1529 1529 1530 1530 1531 1531 1532 1532 1532 1533 1533 1533 1534 1534 1534 1533 1532 1531 1530 1529 1529 1529 1527 1526 1525 1525 1525 1525 1526 1526 1526 1526 1525 1525 1525 1525 1524 1524 1523 1521
1536 1536 1536 1535 1536 1536 1536 1536 1536 1536 1536 1535 1535 1535 1535 1535 1535 1535 1534 1534 1534 1533 1533 1534 1534 1535 1536 1536 1537 1537 1537 1537 1537 1536 1535 1534 1534 1533 1532 1532 1531 1531 1530 1530 1530 1530 1529 1529 1529 1529 1530 1530 1531 1531 1531 1532 1532 1533 1533 1534 1534 1534 1533 1532 1531 1530 1529 1529 1528 1526 1525 1524 1524 1524 1525 1525 1526 1526 1526 1526 1525 1525 1525 1524 1524 1524 1523
1537 1537 1536 1536 1536 1536 1536 1536 1536 1535 1535 1535 1535 1534 1534 1534 1534 1534 1533 1533 1533 1532 1532 1533 1533 1534 1535 1535 1535 1536 1536 1536 1535 1535 1534 1534 1533 1532 1532 1531 1530 1530 1530 1530 1529 1529 1529 1529 1529 1529 1530 1530 1531 1531 1531 1531 1532 1532 1533 1533 1534 1534 1533 1533 1531 1530 1530 1529 1527 1526 1525 1524 1524 1525 1525 1525 1526 1526 1526 1526 1526 1525 1525 1525 1525 1524 1524
1537 1537 1536 1536 1536 1536 1536 1536 1535 1535 1535 1534 1534 1534 1533 1533 1533 1533 1532 1532 1532 1531 1532 1532 1532 1533 1534 1534 1534 1535 1535 1535 1535 1534 1533 1533 1532 1531 1531 1530 1529 1529 1529 1529 1528 1528 1528 1528 1528 1528 1529 1529 1530 1530 1530 1530 1531 1531 1532 1533 1533 1533 1533 1532 1531 1530 1530 1529 1528 1527 1526 1525 1525 1525 1525 1526 1526 1526 1526 1526 1526 1525 1525 1525 1525 1524 1523
1537 1537 1536 1536 1536 1536 1535 1535 1535 1534 1534 1533 1533 1533 1533 1532 1532 1532 1531 1531 1531 1531 1531 1531 1532 1532 1533 1533 1533 1534 1533 1533 1533 1533 1533 1532 1531 1530 1530 1529 1529 1528 1528 1527 1526 1526 1526 1526 1527 1527 1528 1528 1529 1529 1529 1529 1530 1530 1531 1532 1532 1532 1532 1532 1531 1529 1529 1528 1527 1527 1526 1525 1525 1525 1525 1526 1526 1526 1526 1525 1525 1525 1525 1525 1524 1524 1523
1537 1536 1536 1536 1536 1535 1535 1535 1534 1534 1533 1533 1532 1532 1532 1532 1531 1531 1531 1531 1530 1530 1530 1531 1531 1531 1532 1532 1532 1532 1532 1532 1532 1532 1532 1531 1530 1530 1529 1528 1528 1527 1526 1526 1525 1525 1525 1525 1526 1526 1526 1527 1528 1528 1528 1528 1528 1529 1530 1531 1531 1531 1531 1531 1530 1530 1529 1528 1528 1527 1527 1526 1525 1525 1525 1526 1526 1526 1526 1526 1525 1525 1525 1525 1524 1524 1523
1536 1536 1535 1535 1535 1535 1534 1534 1533 1533 1532 1532 1532 1531 1531 1531 1531 1531 1530 1530 1530 1530 1530 1530 1530 1530 1531 1531 1531 1531 1531 1531 1531 1531 1531 1530 1530 1529 1529 1528 1528 1527 1526 1525 1525 1524 1524 1524 1525 1525 1526 1526 1526 1527 1526 1527 1527 1529 1529 1530 1530 1530 1531 1531 1530 1529 1529 1528 1528 1528 1528 1526 1526 1526 1526 1526 1526 1526 1526 1526 1526 1526 1526 1525 1525 1524 1523
1535 1535 1535 1534 1534 1534 1533 1533 1532 1532 1531 1531 1531 1530 1530 1530 1530 1530 1530 1530 1529 1529 1529 1529 1529 1529 1529 1529 1530 1530 1530 1529 1529 1529 1529 1529 1529 1528 1528 1528 1527 1526 1525 1525 1524 1524 1524 1524 1524 1524 1525 1525 1525 1525 1525 1526 1527 1528 1529 1529 1529 1529 1530 1530 1530 1529 1528 1528 1528 1528 1528 1528 1527 1527 1526 1526 1526 1526 1526 1526 1526 1526 1526 1525 1525 1524 1524
1534 1534 1534 1533 1533 1533 1532 1532 1531 1531 1530 1530 1530 1529 1529 1529 1529 1529 1529 1529 1528 1528 1528 1528 1528 1528 1528 1528 1528 1528 1528 1528 1528 1528 1528 1527 1527 1527 1527 1526 1526 1525 1524 1524 1524 1523 1523 1523 1523 1523 1523 1524 1524 1524 1524 1525 1526 1527 1528 1528 1528 1528 1529 1529 1529 1529 1528 1528 1528 1528 1528 1528 1528 1527 1527 1527 1527 1526 1526 1526 1526 1526 1526 1526 1525 1525 1524
1533 1533 1533 1532 1532 1532 1531 1531 1530 1530 1529 1529 1528 1528 1528 1528 1528 1528 1528 1527 1527 1527 1527 1527 1527 1527 1527 1527 1527 1527 1527 1527 1527 1527 1527 1526 1525 1525 1524 1524 1524 1524 1523 1523 1523 1523 1523 1523 1522 1522 1522 1522 1522 1522 1523 1524 1525 1525 1526 1526 1527 1527 1528 1528 1528 1528 1528 1528 1528 1528 1528 1528 1528 1528 1528 1527 1527 1527 1526 1526 1526 1526 1526 1526 1525 1525 1525
1532 1532 1532 1531 1531 1531 1530 1530 1529 1528 1528 1528 1527 1527 1527 1527 1527 1526 1526 1526 1526 1526 1526 1525 1525 1525 1525 1525 1526 1526 1526 1526 1526 1525 1525 1525 1524 1524 1523 1523 1523 1522 1522 1522 1522 1522 1522 1521 1521 1521 1521 1521 1521 1521 1521 1522 1523 1524 1524 1525 1526 1526 1526 1526 1527 1527 1527 1527 1527 1528 1528 1527 1527 1528 1528 1527 1526 1526 1526 1526 1526 1526 1525 1525 1525 1525 1525
1531 1531 1531 1530 1530 1530 1529 1528 1528 1527 1526 1526 1526 1526 1525 1525 1525 1525 1525 1525 1524 1524 1524 1524 1524 1524 1524 1524 1524 1524 1524 1524 1524 1523 1523 1523 1523 1523 1522 1522 1522 1521 1521 1521 1521 1520 1520 1520 1519 1519 1519 1519 1519 1520 1520 1521 1522 1522 1523 1524 1524 1524 1524 1525 1526 1526 1527 1526 1526 1527 1527 1527 1527 1527 1527 1526 1526 1526 1525 1525 1525 1525 1525 1525 1525 1525 1525
1530 1530 1530 1530 1529 1529 1528 1527 1526 1526 1525 1525 1525 1524 1524 1524 1524 1524 1523 1523 1523 1523 1523 1522 1522 1522 1522 1522 1522 1522 1522 1522 1521 1521 1521 1521 1521 1521 1521 1521 1521 1520 1520 1519 1519 1519 1518 1518 1517 1517 1517 1518 1518 1518 1519 1519 1520 1521 1521 1522 1522 1523 1523 1524 1524 1525 1526 1526 1525 1525 1525 1525 1526 1526 1525 1524 1524 1525 1524 1524 1525 1525 1525 1525 1524 1524 1524
1529 1529 1529 1528 1528 1527 1527 1526 1525 1525 1524 1524 1524 1523 1523 1522 1522 1522 1522 1522 1521 1521 1521 1521 1520 1521 1521 1520 1520 1520 1521 1521 1520 1520 1520 1520 1520 1520 1520 1519 1519 1519 1519 1518 1517 1517 1517 1516 1516 1516 1516 1516 1516 1517 1517 1518 1519 1519 1520 1521 1521 1521 1522 1522 1523 1524 1524 1524 1524 1524 1524 1524 1524 1524 1524 1523 1524 1524 1523 1524 1524 1525 1525 1524 1524 1524 1524
1528 1528 1528 1527 1527 1526 1525 1525 1524 1524 1523 1523 1522 1522 1521 1521 1521 1521 1521 1520 1520 1520 1520 1519 1519 1519 1519 1519 1519 1519 1519 1519 1519 1519 1518 1518 1519 1519 1518 1518 1518 1518 1518 1517 1516 1516 1515 1515 1514 1514 1514 1514 1514 1515 1516 1516 1517 1517 1518 1519 1519 1520 1520 1521 1521 1522 1523 1523 1523 1524 1524 1524 1524 1524 1523 1523 1523 1523 1522 1523 1523 1524 1524 1524 1524 1523 1523
1527 1527 1527 1526 1526 1525 1524 1523 1523 1522 1522 1521 1521 1521 1520 1520 1520 1520 1519 1519 1519 1519 1519 1518 1518 1518 1518 1518 1518 1518 1518 1517 1517 1517 1517 1517 1517 1517 1517 1517 1517 1517 1517 1517 1516 1515 1514 1514 1514 1513 1513 1513 1513 1513 1514 1514 1515 1515 1516 1517 1517 1518 1518 1519 1520 1520 1521 1522 1522 1522 1523 1523 1523 1523 1522 1522 1522 1521 1521 1521 1522 1521 1521 1521 1522 1522 1522
1527 1526 1526 1525 1524 1524 1523 1522 1521 1521 1520 1520 1520 1519 1519 1519 1519 1519 1518 1518 1518 1518 1517 1517 1517 1517 1517 1517 1517 1517 1516 1516 1516 1516 1515 1515 1515 1515 1515 1515 1515 1515 1516 1516 1515 1515 1514 1514 1513 1513 1512 1512 1512 1512 1512 1513 1513 1514 1515 1515 1516 1517 1517 1517 1518 1518 1519 1519 1520 1520 1521 1522 1522 1522 1521 1520 1520 1520 1519 1519 1519 1519 1519 1519 1520 1520 1520
1526 1525 1524 1524 1523 1523 1522 1522 1521 1520 1519 1519 1519 1519 1518 1518 1518 1518 1517 1517 1516 1517 1517 1516 1516 1516 1516 1516 1516 1516 1515 1515 1515 1515 1514 1514 1514 1514 1514 1514 1514 1514 1514 1514 1514 1514 1514 1513 1513 1512 1512 1512 1512 1511 1511 1512 1512 1513 1514 1514 1515 1515 1515 1516 1516 1516 1516 1517 1517 1518 1519 1519 1520 1520 1520 1519 1519 1518 1518 1518 1518 1517 1517 1517 1517 1518 1518